Regional Weather Roundup
Issued by NWS

Home | Current Version | Previous Version | Text Only | Print | Product List | Glossary Off
Versions: 1 2 3 4 5 6 7 8 9 10 11 12 13 14 15 16 17 18 19 20 21 22 23 24 25 26 27 28 29 30 31 32 33 34 35 36 37 38 39 40 41 42 43 44 45 46 47 48 49 50

000
ASUS45 KCYS 050710
RWRWY

WYOMING REGIONAL WEATHER ROUNDUP
NATIONAL WEATHER SERVICE CHEYENNE WY
100 AM MDT SUN APR 05 2020

NOTE:  "FAIR" INDICATES FEW OR NO CLOUDS BELOW 12,000 FEET
WITH NO SIGNIFICANT WEATHER AND/OR OBSTRUCTIONS TO VISIBILITY.

WYZ001-050800-
...YELLOWSTONE NATIONAL PARK...

CITY           SKY/WX    TMP DP  RH WIND       PRES   REMARKS
LK YELLOWSTONE   N/A     23  15  71 CALM      29.77S
W YELLOWSTONE  NOT AVBL

$$
WYZ002>013-054>058-071-098>099-050800-
...NORTHERN WYOMING...

CITY           SKY/WX    TMP DP  RH WIND       PRES   REMARKS
JACKSON        CLOUDY    33  20  58 E10       29.73F WCI  25
CODY           FAIR      34  19  54 S5        29.74F WCI  30
GREYBULL       FAIR      31  23  72 W6        29.71F WCI  25
WORLAND        FAIR      36  22  56 S10       29.72F WCI  28
SHERIDAN       FAIR      31  24  75 NW7       29.78F WCI  24
BUFFALO        FAIR      31  20  63 W5        29.76F WCI  26
GILLETTE       FAIR      32  22  66 S3        29.78F
HULETT         NOT AVBL
NEWCASTLE      FAIR      34  19  55 SE5       29.81F WCI  30

$$
WYZ014>020-022>026-101>103-050800-
...CENTRAL WYOMING...

CITY           SKY/WX    TMP DP  RH WIND       PRES   REMARKS
BIG PINEY      CLOUDY    32  18  56 E3        29.78F
PINEDALE       CLOUDY    36  21  55 S12       29.80R WCI  27
DUBOIS         FAIR      28  14  54 CALM      29.74F
LANDER         FAIR      34  19  54 CALM      29.73F
RIVERTON       FAIR      29  20  69 W6        29.75F WCI  23
CASPER         FAIR      33  27  78 SE6       29.75F WCI  28
DOUGLAS        FAIR      40  23  50 SE12      29.78F WCI  33

$$
WYZ021-027>030-104>119-050800-
...SOUTHERN WYOMING...

CITY           SKY/WX    TMP DP  RH WIND       PRES   REMARKS
EVANSTON       MOCLDY    38  19  46 S7        29.72F WCI  33
KEMMERER       FAIR      37  12  35 E12       29.75S WCI  30
FORT BRIDGER   NOT AVBL
ROCK SPRINGS   FAIR      35  18  49 SE9       29.77S WCI  28
DIXON          CLOUDY    36  22  57 E10G16    29.82F WCI  28
RAWLINS        FAIR      30  22  72 NW5       29.80S WCI  25
SARATOGA       FAIR      34  21  60 SE10      29.82S WCI  26
LARAMIE        FAIR      31  17  56 S8        29.82F WCI  23
CHEYENNE       FAIR      37  24  59 S8        29.82F WCI  31
TORRINGTON     FAIR      41  25  53 SE16      29.79F
PINE BLUFFS    FAIR      37  27  65 S13       29.83S WCI  29

$$



USA.gov is the U.S. government's official web portal to all federal, state and local government web resources and services.